User: anonymous   Login
Location: Laan Hart van Zuid
(52.2563°N, 6.7904°E)
Time: 22:57:06
(UTC+01:00)
Language:

BlueWalker 3 - Orbit

View from above orbital plane
View from above orbital plane
View from above satellite
View from above satellite

Ground track
Ground track

The orbit is defined by the following mean orbital elements,

1 53807U          26022.30135381 +.00000000 +00000-0 +20513-3 0 00006
2 53807  53.2315 357.9584 0008459  84.2070 275.9898 15.36423239    08
Epoch (UTC): 22 January 2026 07:13:56
Eccentricity: 0.0008459
inclination: 53.2315°
perigee height: 451 km
apogee height: 462 km
right ascension of ascending node: 357.9584°
argument of perigee: 84.2070°
revolutions per day: 15.36423239
mean anomaly at epoch: 275.9898°

The dashed part of the orbit path shows where the satellite is in the earth's shadow,  

DLR